Zurück zum Katalog

ONDOSAT-OWL-10

AktivAmateurfunkVLEO
NORAD 62404·PAYLOAD·🇲🇳 Mongolia
Dieser Satellitenname wurde noch nicht durch offizielle Quellen bestätigt.

Gestartet Dec 21, 2024 von Vandenberg Space Force Base

Loading…

Nächste Überflüge (nächste 24 Stunden)

TLE

AktuellSource: Space-Track

Epoche: Sep 13, 2026, 22:30 UTC

1 62404U 24247AD  26256.93773080  .00058422  00000-0  70575-3 0  9991
2 62404  44.9911 105.2339 0007103 207.5401 152.5118 15.59931359 97288

Verfolge ONDOSAT-OWL-10 in Echtzeit mit AllMySat

Download on the App Store